Temperature
4 4 5 5 5 6 6 6 6 6 5 5 5 5 5 5 5 5 4 4 5 5 5 5 5 5 5 5 6 6 6 6 6 6 6 6 5 5 5 5 5 6 6
1 2 2 3 3 4 4 4 4 4 4 4 4 4 4 3 3 3 3 3 3 3 3 3 4 4 4 4 5 5 5 5 5 6 6 5 4 4 5 5 5 5 5
-1 -1 -0 0 1 1 2 2 3 2 3 3 3 2 1 1 1 1 1 1 1 1 1 2 2 3 3 3 4 4 4 4 4 4 4 4 4 4 4 4 4 4 5
-1 -1 -1 -1 -0 0 1 1 1 1 1 1 0 -0 -0 -0 -0 0 0 0 0 0 1 1 1 1 1 2 2 2 2 3 3 3 3 3 3 3 2 3 3 3 4
-1 -2 -2 -1 -1 -1 -1 -1 -1 -1 -1 -1 -2 -2 -1 -1 -1 -1 -0 -0 -0 -0 -0 -0 0 0 0 1 1 1 1 2 2 2 2 2 2 1 1 2 2 2 3
-2 -3 -3 -3 -3 -3 -3 -3 -3 -3 -3 -3 -3 -2 -2 -2 -2 -2 -2 -2 -2 -2 -1 -1 -1 -1 -1 -0 -0 -0 0 0 1 1 1 0 0 0 0 0 -0 0 0
-3 -4 -4 -4 -4 -4 -4 -4 -4 -4 -4 -4 -4 -3 -3 -3 -3 -3 -3 -3 -3 -3 -3 -3 -3 -3 -2 -3 -2 -2 -1 -1 -0 -0 -1 -1 -2 -1 -1 -1 -2 -2 -1
-4 -5 -5 -5 -5 -5 -5 -5 -5 -5 -5 -5 -5 -5 -4 -4 -5 -5 -5 -5 -5 -4 -4 -4 -4 -5 -5 -5 -5 -4 -4 -4 -2 -2 -3 -3 -3 -3 -3 -3 -3 -3 -2
-5 -6 -6 -6 -6 -6 -6 -6 -6 -6 -6 -6 -6 -6 -6 -6 -6 -6 -6 -6 -6 -6 -6 -6 -5 -6 -7 -7 -6 -6 -6 -5 -5 -4 -3 -4 -3 -3 -3 -3 -4 -4 -3
-6 -7 -7 -7 -7 -7 -7 -7 -7 -7 -7 -7 -7 -7 -7 -7 -7 -7 -7 -8 -8 -8 -8 -8 -7 -8 -8 -8 -7 -7 -7 -7 -6 -5 -4 -4 -4 -4 -4 -4 -5 -5 -5
-8 -8 -8 -8 -8 -8 -8 -8 -8 -8 -8 -8 -8 -8 -8 -8 -8 -8 -8 -8 -9 -9 -9 -9 -9 -9 -8 -8 -7 -8 -8 -7 -6 -5 -5 -4 -5 -5 -5 -6 -6 -5 -5
-9 -9 -9 -9 -9 -9 -9 -9 -9 -9 -9 -9 -9 -9 -9 -9 -9 -9 -9 -9 -9 -9 -9 -9 -9 -9 -8 -8 -8 -8 -8 -7 -7 -6 -6 -6 -5 -5 -5 -5 -5 -5 -5
-10 -10 -10 -10 -10 -10 -10 -10 -10 -10 -10 -10 -9 -9 -9 -10 -10 -9 -9 -10 -10 -10 -10 -10 -9 -9 -8 -8 -8 -8 -8 -9 -9 -8 -8 -8 -7 -6 -6 -6 -5 -5 -5
-11 -11 -11 -11 -10 -10 -10 -10 -11 -11 -11 -10 -10 -10 -10 -10 -10 -10 -10 -10 -10 -10 -11 -10 -9 -9 -9 -9 -9 -10 -10 -10 -10 -10 -9 -9 -9 -8 -8 -7 -7 -6 -5
-11 -11 -11 -11 -11 -11 -11 -11 -11 -11 -11 -11 -11 -11 -11 -11 -11 -11 -10 -10 -10 -11 -11 -11 -11 -11 -11 -11 -11 -11 -11 -11 -11 -11 -11 -10 -10 -10 -9 -9 -9 -8 -8
-11 -12 -12 -12 -12 -12 -11 -11 -11 -11 -11 -12 -12 -12 -12 -12 -12 -11 -11 -11 -11 -11 -12 -12 -12 -12 -12 -12 -12 -12 -12 -12 -12 -12 -12 -12 -12 -11 -11 -10 -10 -10 -10
-12 -13 -13 -13 -13 -12 -12 -12 -12 -12 -12 -12 -12 -12 -13 -13 -12 -12 -12 -12 -12 -12 -12 -13 -13 -13 -13 -13 -13 -13 -13 -13 -13 -13 -13 -13 -13 -12 -12 -12 -11 -11 -11
-13 -13 -13 -13 -13 -13 -13 -13 -13 -13 -13 -13 -13 -13 -13 -13 -13 -13 -13 -13 -13 -13 -14 -14 -14 -14 -14 -14 -14 -14 -14 -14 -14 -14 -14 -13 -13 -13 -13 -12 -12 -12 -12
-14 -14 -14 -14 -14 -14 -14 -14 -14 -14 -14 -14 -14 -14 -14 -14 -14 -14 -14 -14 -14 -14 -14 -14 -15 -15 -15 -15 -15 -15 -15 -15 -15 -14 -14 -14 -14 -13 -13 -12 -12 -12 -13
-14 -14 -15 -15 -15 -15 -15 -15 -15 -15 -15 -15 -15 -15 -15 -14 -14 -14 -14 -14 -14 -14 -15 -15 -15 -15 -16 -16 -16 -16 -16 -15 -15 -15 -15 -14 -14 -13 -13 -13 -13 -13 -13
-15 -15 -15 -15 -15 -15 -15 -15 -15 -15 -15 -15 -15 -15 -15 -15 -14 -15 -15 -15 -15 -15 -15 -15 -15 -16 -16 -16 -16 -16 -16 -16 -15 -15 -15 -14 -14 -13 -13 -13 -13 -13 -13
-15 -15 -15 -16 -16 -16 -16 -16 -16 -16 -16 -15 -15 -15 -15 -15 -15 -15 -15 -15 -16 -16 -16 -16 -16 -16 -16 -16 -16 -16 -16 -16 -16 -16 -15 -14 -14 -13 -13 -13 -13 -13 -12
-15 -15 -16 -16 -16 -16 -16 -16 -16 -16 -16 -16 -16 -16 -16 -16 -16 -16 -17 -17 -17 -17 -17 -17 -17 -17 -17 -17 -17 -17 -17 -16 -16 -15 -15 -14 -14 -13 -13 -13 -13 -12 -12
-15 -15 -16 -16 -16 -16 -16 -16 -16 -16 -16 -16 -16 -16 -16 -17 -17 -17 -17 -17 -17 -17 -17 -17 -17 -17 -17 -17 -17 -17 -16 -16 -16 -15 -14 -14 -13 -13 -13 -13 -13 -12 -11
-15 -15 -15 -15 -15 -16 -16 -16 -16 -16 -16 -16 -16 -16 -16 -16 -17 -17 -17 -17 -17 -17 -17 -17 -17 -17 -16 -16 -16 -16 -16 -15 -15 -14 -14 -14 -13 -13 -13 -13 -12 -12 -11
-15 -15 -15 -15 -15 -15 -16 -15 -15 -15 -16 -16 -16 -16 -16 -16 -16 -16 -16 -17 -17 -17 -17 -17 -16 -16 -16 -16 -16 -15 -15 -15 -14 -14 -13 -13 -13 -13 -13 -13 -12 -12 -11
Wind_Speed
14 10 7 6 5 5 4 3 2 2 3 3 5 6 7 8 9 9 10 9 9 10 9 9 10 10 8 8 8 9 10 11 12 11 8 7 8 8 6 7 8 8 8
13 7 2 3 4 3 3 3 3 3 4 4 5 6 7 8 8 9 9 9 9 9 9 9 10 9 11 10 10 11 11 12 12 13 9 7 7 7 7 8 7 7 8
10 7 3 1 2 3 3 3 4 4 4 4 4 5 5 6 6 5 5 4 3 2 3 3 5 7 10 9 10 10 9 9 9 9 8 5 5 6 7 8 9 8 8
8 7 5 5 3 3 4 4 4 2 2 3 3 4 4 4 4 4 4 5 5 6 7 7 8 7 6 4 3 3 4 6 6 6 6 5 5 5 7 7 8 8 9
6 6 5 5 4 3 4 3 3 2 2 2 3 4 5 5 6 7 7 7 7 7 8 8 9 11 13 10 6 5 3 1 1 2 3 3 4 4 6 6 9 10 11
4 5 5 5 5 5 4 4 2 1 2 2 4 6 8 6 9 10 7 7 7 6 6 5 6 8 10 11 12 10 8 5 3 2 3 5 6 6 6 7 8 9 8
4 5 6 6 5 5 4 4 3 2 2 3 4 6 7 10 11 10 8 5 5 4 4 4 4 5 5 5 6 5 4 5 6 5 6 6 6 7 8 9 9 10 11
6 6 7 7 6 5 4 4 3 2 2 2 4 4 5 7 10 8 5 4 4 4 4 5 6 6 6 8 7 6 6 4 5 6 5 6 6 7 9 10 12 12 13
7 8 8 8 8 6 4 3 2 1 1 2 3 4 4 5 8 5 2 2 2 2 4 5 6 6 7 9 8 7 7 6 4 6 8 9 11 12 10 8 9 9 10
8 8 8 8 7 6 5 4 3 2 1 1 2 3 4 4 7 6 3 2 3 3 3 3 4 7 9 10 8 7 7 7 8 8 8 8 8 7 8 7 7 8 9
8 7 7 8 7 6 5 4 4 3 2 2 3 3 4 4 4 4 4 3 3 4 3 3 3 8 10 9 8 6 7 10 9 8 8 7 6 5 5 6 6 7 8
8 7 7 7 7 5 5 4 4 4 3 3 4 4 3 2 2 3 5 4 5 5 4 4 4 9 10 9 7 8 9 9 6 6 7 6 6 6 6 8 9 9 10
8 7 7 7 7 6 5 4 4 4 4 4 4 4 4 3 2 3 5 4 5 5 5 5 7 9 9 6 5 8 8 5 5 6 6 7 7 8 9 9 9 9 11
8 8 7 7 7 6 5 5 4 4 4 5 5 5 5 5 4 4 5 4 4 4 4 3 6 7 6 6 6 5 5 5 6 6 6 7 8 8 8 8 9 9 10
9 8 8 7 7 6 6 5 6 5 6 7 6 6 6 6 7 10 9 4 3 2 3 5 5 5 5 5 5 5 5 6 6 6 6 7 8 8 9 8 8 9 10
9 9 8 7 7 7 7 6 4 6 9 9 8 9 8 10 12 12 9 2 1 2 3 5 5 5 6 6 6 6 6 6 6 6 7 7 8 9 9 9 9 9 10
10 9 8 8 8 8 8 8 8 7 7 7 8 10 11 12 12 10 4 2 2 2 4 5 5 5 6 6 6 6 6 7 7 7 8 8 8 9 9 10 10 10 11
10 10 10 8 8 8 8 8 8 8 9 7 8 10 11 11 11 10 5 3 4 4 5 5 6 6 6 6 6 7 7 7 7 8 8 9 9 9 10 11 11 12 12
10 9 10 9 8 8 8 8 7 8 8 9 8 8 10 10 11 9 7 6 6 6 6 6 6 6 7 7 7 7 8 8 9 9 9 10 9 9 10 11 12 16 15
10 13 12 9 8 7 7 7 7 8 8 8 8 8 9 10 8 7 7 7 7 7 7 7 7 7 7 8 8 8 8 9 9 9 9 9 9 10 12 14 13 14 13
9 10 12 9 7 7 8 8 8 8 9 9 9 10 14 11 9 9 9 8 8 8 8 8 8 8 8 8 8 9 10 10 10 10 10 10 10 11 12 13 14 15 15
8 8 8 8 8 8 9 8 9 9 10 11 11 11 15 11 9 10 10 9 9 9 9 9 9 9 8 8 9 9 10 11 11 11 11 11 11 12 13 14 15 15 15
9 9 8 8 8 10 10 9 9 10 11 11 11 11 10 10 10 10 10 10 10 10 9 9 9 9 9 8 9 10 10 11 11 12 12 13 13 14 14 15 17 18 16
9 9 9 8 8 8 9 10 11 11 11 11 11 10 10 10 11 11 11 10 10 9 9 8 9 10 12 10 10 11 12 14 15 13 17 17 17 17 15 15 16 18 17
9 9 8 8 8 9 10 10 11 11 11 10 10 10 10 10 10 10 10 9 9 8 9 8 7 8 11 12 13 14 19 23 24 21 17 17 16 15 15 16 15 15 12
10 10 9 9 9 10 11 11 12 12 11 11 10 10 10 10 10 9 8 7 7 6 6 6 7 9 11 12 15 19 23 25 26 24 14 11 12 12 13 12 13 9 7
Wind_Direction
307 273 241 229 212 186 154 129 84 48 16 342 323 306 295 289 282 274 268 268 265 263 259 259 258 256 252 246 240 239 240 243 252 258 257 264 274 282 296 306 311 309 305
340 327 268 187 168 145 116 94 65 35 12 346 320 307 299 291 283 275 271 267 264 264 265 266 265 264 258 255 248 243 242 240 245 255 252 252 266 283 298 305 309 308 307
343 342 346 24 80 99 91 64 45 26 354 337 319 311 308 302 292 284 274 268 267 283 303 298 296 280 266 257 251 247 242 235 235 245 249 248 266 284 301 301 303 306 307
344 349 358 10 18 47 62 50 39 15 356 352 346 351 358 18 34 48 64 71 67 57 49 41 27 14 355 326 285 265 237 221 215 225 238 246 262 289 300 306 309 308 305
349 355 355 356 2 30 56 53 39 28 23 25 33 33 33 56 66 69 70 65 60 53 46 42 35 26 24 26 36 33 24 20 216 230 245 268 275 296 305 313 306 308 302
1 0 358 359 5 20 31 25 19 33 62 63 53 45 37 46 78 75 76 75 66 56 44 34 28 24 16 20 31 35 29 23 358 314 280 274 284 296 301 300 302 299 298
13 10 6 2 2 7 12 13 18 44 67 63 54 49 42 38 62 72 62 69 73 62 39 17 7 5 0 2 2 355 2 15 357 320 290 286 295 299 302 297 291 288 286
22 16 8 1 359 2 8 16 17 31 64 63 52 44 46 39 41 59 55 45 48 41 22 2 345 337 346 345 334 320 310 307 327 307 302 300 301 307 303 295 292 289 285
20 13 6 359 356 359 9 14 6 351 19 49 43 31 23 24 19 19 11 352 351 357 355 353 341 329 346 338 323 314 308 304 303 302 307 302 299 295 296 293 289 288 289
11 7 5 0 358 1 5 4 355 337 340 2 18 12 0 357 4 359 355 327 322 325 327 341 4 352 349 344 330 319 311 319 321 315 308 302 297 292 289 284 290 287 288
1 3 7 4 358 359 354 354 344 335 323 317 317 324 331 342 347 356 5 343 338 328 329 338 1 355 351 349 337 324 328 325 317 313 311 312 314 313 312 309 304 291 282
1 6 7 6 2 355 349 350 347 332 310 302 302 304 317 317 337 348 352 359 343 322 321 329 352 351 344 339 331 335 332 320 309 311 311 315 321 323 321 314 301 288 275
4 8 7 5 5 358 352 351 345 335 325 316 314 317 324 322 305 319 319 316 321 314 319 337 337 338 331 319 325 328 317 309 312 306 305 311 316 314 312 308 303 295 286
9 9 8 6 5 4 357 352 345 336 334 331 328 327 324 319 312 307 303 262 258 283 297 311 315 317 308 306 309 305 306 311 308 301 304 306 307 307 306 311 311 313 305
5 6 3 2 355 352 352 348 335 329 325 325 326 319 314 310 313 311 314 299 286 323 311 300 305 313 312 311 306 303 305 300 294 298 300 301 302 304 306 309 305 304 296
356 356 354 351 347 344 338 332 330 324 324 324 321 315 309 303 305 309 318 341 38 30 301 294 299 301 302 306 307 307 304 299 301 300 295 294 297 300 301 302 298 293 290
349 345 342 342 342 340 335 330 326 324 318 315 319 320 314 310 309 314 333 59 33 341 289 287 287 289 292 294 296 297 298 300 301 293 289 290 292 292 293 295 295 291 286
343 339 334 331 333 332 329 326 323 323 323 323 323 322 320 316 311 309 312 299 284 278 276 274 276 279 282 284 287 290 293 294 290 287 286 285 286 287 288 288 290 289 287
341 339 336 334 334 331 328 326 324 323 321 319 319 322 326 319 306 298 295 288 290 286 278 273 274 278 282 283 284 286 288 288 288 287 284 282 282 283 283 285 287 288 286
343 344 346 343 340 339 337 334 333 329 324 320 319 322 322 314 307 300 290 287 283 280 278 276 276 277 279 279 280 282 285 286 285 281 279 278 279 280 280 282 283 284 283
345 346 350 347 347 342 337 337 334 329 324 319 316 315 316 313 309 302 296 289 283 278 277 277 278 277 275 276 278 280 282 283 282 281 279 277 278 280 281 281 281 281 281
346 345 344 343 342 339 340 337 331 326 323 322 321 319 319 314 308 304 302 300 294 287 283 280 277 275 275 276 279 283 283 283 282 282 279 278 279 280 281 281 280 282 282
344 342 340 340 338 336 339 337 334 331 329 327 323 321 321 318 313 309 304 297 292 287 282 277 274 273 274 275 276 276 277 280 282 284 282 281 281 280 281 280 282 285 282
340 336 332 332 331 332 334 334 334 334 330 327 324 320 317 313 309 305 301 296 290 284 279 274 271 272 275 278 277 275 274 276 279 277 274 270 272 276 279 282 284 282 280
337 333 326 321 319 320 321 321 322 322 321 319 315 315 314 312 310 309 308 303 297 287 282 277 273 274 277 279 280 280 282 283 281 277 272 271 274 277 280 280 279 281 281
330 326 319 311 307 307 309 309 309 310 309 308 308 309 310 310 310 312 314 312 307 297 287 278 274 278 282 286 288 290 292 291 289 291 291 286 284 282 282 281 282 281 282
Height
1428 1427 1426 1428 1428 1429 1429 1429 1430 1429 1430 1430 1431 1430 1430 1429 1428 1428 1428 1428 1428 1429 1429 1429 1430 1431 1431 1432 1433 1434 1436 1437 1437 1437 1437 1436 1436 1435 1435 1433 1432 1431 1431
1423 1421 1419 1419 1420 1421 1422 1423 1424 1424 1424 1425 1425 1424 1423 1422 1421 1420 1420 1420 1421 1422 1422 1422 1423 1424 1425 1426 1427 1428 1429 1430 1431 1431 1431 1431 1431 1431 1430 1429 1427 1426 1426
1422 1419 1416 1415 1414 1415 1416 1418 1418 1419 1421 1421 1420 1419 1418 1417 1416 1415 1415 1415 1415 1416 1416 1416 1416 1417 1418 1419 1420 1421 1422 1422 1423 1424 1425 1425 1425 1425 1425 1424 1423 1421 1420
1422 1418 1415 1413 1412 1411 1411 1412 1414 1415 1416 1416 1416 1416 1415 1414 1414 1413 1412 1412 1412 1412 1411 1411 1412 1412 1413 1413 1413 1414 1415 1416 1417 1418 1419 1420 1420 1420 1420 1419 1417 1416 1415
1420 1417 1414 1412 1410 1408 1408 1409 1410 1411 1412 1413 1414 1414 1413 1413 1412 1411 1410 1410 1409 1409 1409 1409 1409 1409 1409 1409 1409 1409 1410 1411 1412 1412 1413 1414 1415 1415 1414 1412 1411 1410 1409
1419 1415 1413 1411 1409 1407 1407 1407 1407 1409 1411 1412 1412 1412 1412 1411 1410 1409 1408 1408 1407 1407 1407 1407 1407 1407 1406 1406 1406 1406 1407 1407 1407 1408 1408 1409 1410 1410 1409 1407 1406 1404 1402
1418 1415 1413 1411 1409 1407 1406 1406 1408 1410 1411 1411 1411 1410 1410 1410 1408 1407 1406 1406 1406 1406 1406 1405 1405 1404 1403 1402 1402 1402 1403 1403 1404 1404 1404 1404 1404 1404 1403 1402 1401 1399 1397
1417 1415 1413 1411 1409 1407 1407 1408 1409 1411 1411 1410 1409 1409 1408 1408 1407 1405 1405 1405 1404 1404 1403 1402 1402 1401 1400 1399 1399 1399 1399 1399 1398 1399 1399 1398 1398 1398 1397 1396 1395 1393 1391
1418 1416 1413 1411 1410 1409 1409 1410 1410 1411 1410 1409 1407 1407 1406 1405 1404 1404 1403 1403 1402 1401 1400 1399 1398 1398 1397 1396 1396 1395 1395 1395 1394 1393 1392 1392 1392 1392 1391 1391 1389 1388 1386
1418 1416 1414 1412 1411 1410 1410 1410 1410 1409 1408 1407 1405 1405 1404 1403 1402 1401 1401 1401 1400 1399 1398 1396 1395 1394 1394 1393 1393 1393 1392 1392 1390 1389 1388 1388 1387 1386 1386 1385 1384 1383 1381
1418 1416 1414 1412 1411 1410 1410 1409 1408 1407 1406 1405 1404 1402 1401 1400 1399 1399 1399 1399 1398 1397 1396 1395 1394 1392 1391 1390 1390 1390 1389 1387 1386 1385 1384 1383 1383 1382 1381 1379 1378 1377 1375
1419 1417 1414 1412 1411 1409 1408 1407 1406 1405 1405 1403 1402 1401 1400 1398 1397 1396 1396 1396 1396 1396 1395 1394 1392 1389 1388 1387 1387 1386 1385 1384 1383 1382 1381 1379 1378 1377 1375 1373 1372 1370 1368
1420 1418 1415 1412 1410 1408 1407 1406 1405 1404 1404 1403 1402 1400 1399 1398 1396 1394 1394 1393 1393 1393 1392 1390 1388 1386 1385 1385 1384 1383 1382 1381 1379 1378 1377 1375 1373 1371 1369 1367 1365 1363 1361
1422 1419 1416 1414 1411 1409 1407 1406 1405 1404 1403 1402 1401 1399 1397 1396 1395 1394 1392 1391 1390 1389 1388 1387 1385 1383 1382 1381 1380 1379 1378 1377 1375 1374 1372 1370 1368 1366 1363 1361 1359 1356 1354
1424 1421 1418 1415 1412 1410 1407 1405 1404 1403 1401 1400 1398 1397 1395 1394 1393 1391 1390 1389 1387 1386 1385 1384 1383 1381 1379 1378 1377 1375 1374 1372 1371 1369 1367 1365 1363 1360 1358 1356 1353 1351 1349
1424 1422 1418 1415 1412 1410 1407 1405 1402 1400 1398 1396 1395 1394 1392 1391 1389 1388 1386 1385 1383 1382 1381 1381 1379 1378 1376 1374 1373 1371 1369 1368 1366 1364 1362 1360 1358 1356 1353 1351 1349 1346 1344
1425 1421 1418 1415 1412 1409 1406 1403 1400 1398 1396 1393 1391 1389 1388 1386 1385 1384 1382 1380 1379 1378 1377 1376 1375 1373 1372 1370 1368 1366 1364 1363 1361 1359 1357 1355 1353 1351 1348 1346 1343 1341 1338
1424 1421 1418 1414 1411 1407 1404 1401 1399 1396 1394 1391 1389 1386 1383 1382 1380 1379 1378 1376 1375 1374 1373 1372 1371 1369 1368 1366 1364 1362 1359 1358 1356 1354 1352 1350 1348 1346 1343 1340 1338 1335 1332
1424 1420 1416 1413 1409 1406 1403 1400 1397 1394 1392 1389 1386 1383 1381 1378 1376 1375 1374 1373 1372 1370 1369 1368 1367 1365 1363 1361 1359 1357 1355 1353 1351 1349 1346 1344 1343 1340 1337 1335 1331 1328 1325
1422 1418 1415 1411 1408 1404 1401 1399 1396 1393 1390 1386 1384 1381 1378 1376 1374 1372 1370 1369 1367 1366 1364 1363 1362 1360 1359 1357 1354 1352 1350 1347 1345 1343 1341 1339 1338 1335 1332 1328 1325 1321 1318
1422 1418 1414 1410 1407 1404 1401 1398 1394 1391 1388 1384 1381 1378 1375 1373 1370 1368 1366 1364 1362 1361 1359 1358 1356 1355 1353 1351 1349 1347 1344 1342 1340 1337 1335 1334 1332 1329 1326 1322 1318 1314 1311
1422 1418 1414 1411 1407 1403 1400 1397 1393 1389 1385 1382 1378 1375 1372 1369 1366 1364 1361 1359 1357 1355 1354 1352 1350 1349 1348 1346 1344 1341 1339 1336 1334 1331 1329 1327 1325 1322 1319 1315 1311 1308 1305
1422 1418 1414 1410 1407 1403 1399 1396 1392 1388 1383 1379 1375 1371 1368 1365 1361 1358 1355 1352 1350 1348 1346 1345 1343 1342 1341 1340 1338 1336 1333 1330 1328 1325 1323 1320 1318 1314 1311 1308 1305 1301 1297
1422 1418 1414 1410 1406 1402 1398 1394 1390 1386 1381 1376 1372 1368 1364 1360 1356 1353 1349 1346 1344 1342 1340 1339 1338 1337 1336 1334 1333 1330 1328 1325 1322 1319 1317 1314 1310 1307 1304 1301 1297 1293 1290
1422 1417 1413 1409 1405 1401 1397 1392 1388 1383 1379 1374 1370 1366 1361 1357 1353 1349 1345 1342 1339 1337 1335 1334 1333 1332 1331 1330 1328 1325 1322 1319 1316 1314 1311 1308 1305 1301 1297 1294 1290 1287 1284
1421 1416 1412 1407 1403 1398 1394 1389 1385 1380 1375 1371 1367 1363 1358 1354 1350 1346 1343 1339 1336 1334 1332 1331 1330 1329 1328 1326 1323 1320 1317 1314 1311 1308 1305 1301 1297 1293 1290 1287 1284 1282 1279